Location: Unspecified
(48.8656°N, 0.0000°E)
Time: 19:04:02
(UTC+00:00)

Vanguard 1 - Pass Details

Date: 18 June 2019
Orbit: 655 x 3829 km, 34.2° (Epoch: 22 August)

Event Time Altitude Azimuth Distance (km) Brightness Sun altitude
Rises 06:49:20 0° 256° (WSW) 5,527 13.3 25.2°
Reaches altitude 10° 06:54:17 10° 246° (WSW) 3,942 12.7 26.0°
Maximum altitude 07:01:32 25° 196° (SSW) 2,153 11.8 27.2°
Drops below altitude 10° 07:06:24 10° 141° (SE) 2,565 12.8 28.0°
Sets 07:08:53 0° 127° (SE) 3,280 13.5 28.4°
